Weather History for KBDR - May, 2014

Change the Weather History Date:

Friday, May 2, 2014

  Actual Average Record
Temperature  
Mean Temperature 59 °F 55 °F  
Max Temperature 66 °F 63 °F 85 °F (2001)
Min Temperature 52 °F 46 °F 37 °F (1964)
Degree Days  
Heating Degree Days 6 10  
Month to date heating degree days 12 21  
Since 1 July heating degree days 5492 5176  
Cooling Degree Days 0 0  
Month to date cooling degree days 0 0  
Year to date cooling degree days 0 2  
Growing Degree Days 9 (Base 50)    
Moisture  
Dew Point 44 °F    
Average Humidity 58    
Maximum Humidity 72    
Minimum Humidity 43    
Precipitation  
Precipitation T in 0.11 in 1.55 in (1989)
Month to date precipitation 1.49 0.22  
Year to date precipitation 19.15 14.29  
Snow  
Snow 0.00 in 0.00 in 0.00 in (2002)
Month to date snowfall 0.0 0.0  
Since 1 July snowfall 57.4 27.6  
Snow Depth 0.00 in    
Sea Level Pressure  
Sea Level Pressure 29.76 in    
Wind  
Wind Speed 8 mph (WSW)    
Max Wind Speed 17 mph    
Max Gust Speed 23 mph    
Visibility 10 miles    
Events Rain    
T = Trace of Precipitation, MM = Missing Value Source: NWS Daily Summary

Daily Weather History Graph

Daily Weather History Graph

Search for Another Location

Airport or City:

Trip Planner

Search our weather history database for the weather conditions in past years. The results will help you decide how hot, cold, wet, or windy it might be!

Date:

Astronomy

May. 02, 2014 Rise Set
Actual Time 5:48 AM EDT 7:50 PM EDT
Civil Twilight 5:18 AM EDT 8:20 PM EDT
Nautical Twilight 4:42 AM EDT 8:57 PM EDT
Astronomical Twilight 4:02 AM EDT 9:37 PM EDT
Moon 8:23 AM EDT (5/2) 11:11 PM EDT (5/2)
Length of Visible Light 15h 01m
Length of Day
14h 01m
Waxing Crescent, 12% of the Moon is Illuminated
May 2
Waxing Crescent
May 6
First Quarter
May 14
Full
May 21
Last Quarter
May 28
New

Hourly Weather History & Observations

Time (EDT) Temp. Dew Point Humidity Pressure Visibility Wind Dir Wind Speed Gust Speed Precip Events Conditions
12:52 AM 60.1 °F 55.0 °F 83% 29.71 in 10.0 mi North 11.5 mph - 0.02 in Rain Light Rain
1:52 AM 57.9 °F 46.9 °F 67% 29.73 in 10.0 mi North 8.1 mph - 0.00 in   Scattered Clouds
2:52 AM 55.0 °F 42.1 °F 62% 29.73 in 10.0 mi North 10.4 mph - N/A   Mostly Cloudy
3:52 AM 54.0 °F 41.0 °F 62% 29.73 in 10.0 mi North 4.6 mph - 0.00 in Rain Light Rain
4:52 AM 53.1 °F 41.0 °F 64% 29.72 in 10.0 mi NNW 4.6 mph - 0.00 in   Overcast
5:52 AM 53.1 °F 42.1 °F 66% 29.75 in 10.0 mi West 4.6 mph - 0.00 in Rain Light Rain
6:52 AM 52.0 °F 43.0 °F 71% 29.76 in 10.0 mi SSW 4.6 mph - 0.00 in   Mostly Cloudy
7:52 AM 55.0 °F 44.1 °F 67% 29.76 in 10.0 mi West 4.6 mph - N/A   Mostly Cloudy
8:52 AM 55.0 °F 46.0 °F 72% 29.77 in 10.0 mi SW 4.6 mph - N/A   Overcast
9:52 AM 59.0 °F 44.1 °F 58% 29.78 in 10.0 mi SW 10.4 mph - N/A   Partly Cloudy
10:52 AM 60.1 °F 41.0 °F 49% 29.78 in 10.0 mi SW 11.5 mph - N/A   Clear
11:52 AM 61.0 °F 39.0 °F 44% 29.76 in 10.0 mi South 9.2 mph - N/A   Mostly Cloudy
12:52 PM 62.1 °F 42.1 °F 48% 29.74 in 10.0 mi SSW 10.4 mph - N/A   Mostly Cloudy
1:52 PM 62.6 °F 44.6 °F 52% 29.74 in 10.0 mi SSW 9.2 mph - N/A   Mostly Cloudy
2:52 PM 64.9 °F 45.0 °F 48% 29.72 in 10.0 mi SSW 13.8 mph - N/A   Mostly Cloudy
3:52 PM 64.0 °F 44.1 °F 48% 29.72 in 10.0 mi SW 13.8 mph - N/A   Mostly Cloudy
4:52 PM 63.0 °F 45.0 °F 52% 29.73 in 10.0 mi SW 12.7 mph - N/A   Mostly Cloudy
5:52 PM 61.0 °F 44.1 °F 54% 29.73 in 10.0 mi SW 11.5 mph - N/A   Scattered Clouds
6:52 PM 64.0 °F 41.0 °F 43% 29.76 in 10.0 mi WSW 8.1 mph - N/A   Partly Cloudy
7:52 PM 59.0 °F 45.0 °F 60% 29.78 in 10.0 mi SW 6.9 mph - N/A   Clear
8:52 PM 57.9 °F 44.1 °F 60% 29.80 in 10.0 mi WSW 5.8 mph - N/A   Clear
9:52 PM 57.9 °F 39.0 °F 49% 29.82 in 10.0 mi WSW 5.8 mph - N/A   Clear
10:52 PM 57.9 °F 37.0 °F 46% 29.82 in 10.0 mi West 6.9 mph - N/A   Clear
11:52 PM 55.0 °F 41.0 °F 59% 29.83 in 10.0 mi WSW 3.5 mph - N/A   Clear